www.pogodaiklimat.ru
ПОГОДА в Северном Лахимпуре
Время
(UTC), дата
00 21.01
03 21.01
06 21.01
09 21.01
12 21.01
15 21.01
00 22.01
03 22.01
09 22.01
12 22.01
15 22.01
00 23.01
03 23.01
06 23.01
09 23.01
12 23.01
15 23.01
00 24.01
03 24.01
06 24.01
09 24.01
12 24.01
15 24.01
00 25.01
03 25.01
06 25.01
09 25.01
12 25.01
15 25.01
00 26.01
03 26.01
06 26.01
09 26.01
12 26.01
15 26.01
00 27.01
03 27.01
06 27.01
09 27.01
12 27.01
15 27.01
Ветер
(напр.,м/с)
Видим. Явления Облачность Т
(С)
Тd
(С)
f
(%)
Тe
(С)
Тes
(С)
Комфортность P
(гПа)
Po
(гПа)
Тmin
(С)
Tmax
(С)
R
(мм)
R24
(мм)
S
(см)
СВ 3 500 м слаб. морось {дождь} 10/6 300 м
[Cb calv As op]
+14.0 +14.0 100 +13 +13 1013.5 1001.3 6
С 2 2000 м слаб. дождь {морось} 10/8 300 м
[Cb calv As op]
+14.8 +14.8 100 +15 +15 1015.7 1003.5 +12.4 7
В 1 2000 м дымка {дождь} 10/8 200 м
[Frnb As op]
+15.4 +15.4 100 +16 +16 1014.4 1002.2 0.8
СВ 1 2000 м дымка {дождь} 9/5 300 м
[Sc Ac As]
+16.8 +15.1 90 +18 +19 1012.9 1000.8 1
штиль 0 1000 м дымка 4/1 300 м
[Sc diur, vesp Ac trans]
+15.4 +15.1 98 +15 +15 1015.1 1002.9 +17.1 1
З 1 50 м туман 3/0
[Ac trans]
+12.6 +12.6 100 +12 +12 1016.2 1003.9 1
штиль 0 2000 м дымка {туман} ясно +9.0 +9.0 100 +8 +8 1016.8 1004.3 1
ЮВ 2 4000 м ясно +15.0 +13.6 91 +15 +20 1018.0 1005.8 +7.3 1
Ю 1 4000 м мгла 1/1 600 м
[Cu hum]
+22.2 +14.8 63 +26 +29 душно 1012.5 1000.6
ЮЗ 2 4000 м дымка 1/1 600 м
[Sc diur, vesp]
+17.8 +14.7 82 +19 +19 1013.5 1001.4 +23.2
С 1 1000 м дымка 1/1 600 м
[Sc diur, vesp]
+14.4 +13.7 96 +15 +15 1014.8 1002.6
0 дымка н/о 1013.9
В 1 4000 м 5/1 600 м
[Cu hum Ac trans]
+15.4 +13.3 87 +16 +20 1015.7 1003.5 +7.2
ЮВ 2 4000 м 1/1 600 м
[Cu med, cong Ac trans]
+20.8 +13.9 65 +24 +35 комфорт 1013.0 1001.1
З 1 4000 м мгла 4/1 600 м
[Cu med, cong Ac cuf]
+24.2 +15.6 59 +27 +30 жарко 1010.4 998.6
ЮВ 2 4000 м дымка 8/1 600 м
[Sc diur, vesp Ac As]
+18.8 +16.5 86 +21 +21 комфорт 1011.3 999.3 +25.3
С 1 4000 м дымка 9/0
[Ac und]
+17.0 +16.0 94 +18 +18 1013.7 1001.6
штиль 0 2000 м дымка 6/0
[Ac trans]
+14.4 +14.0 97 +14 +14 1013.8 1001.6
В 1 4000 м дымка 4/1 600 м
[Cu hum Ac trans]
+17.6 +15.6 88 +19 +24 1016.1 1004.0 +12.1
В 3 4000 м мгла 6/4 600 м
[Sc diur, vesp Ac trans]
+23.6 +14.5 57 +26 +30 жарко 1014.6 1002.8
С 3 2000 м мгла 8/5 600 м
[Sc diur, vesp Ac trans]
+22.4 +15.0 63 +26 +27 жарко 1012.6 1000.7
С 2 2000 м дымка 8/4 600 м
[Sc diur, vesp Ac trans]
+19.0 +15.3 79 +21 +21 комфорт 1013.6 1001.6 +25.0
С 1 2000 м дымка 9/4 600 м
[Sc diur, vesp Ac trans]
+16.8 +15.4 91 +18 +18 1015.0 1002.9
В 1 2000 м дымка 5/0
[Ac trans]
+13.0 +11.9 93 +14 +14 1015.7 1003.4
СВ 2 2000 м дымка 9/0
[Ac und]
+17.2 +14.0 81 +18 +20 1017.5 1005.4 +10.7
В 2 2000 м мгла 5/1 600 м
[Cu med, cong Ac trans]
+22.0 +14.2 61 +25 +33 комфорт 1015.8 1003.9
В 2 2000 м мгла 6/3 600 м
[Sc diur, vesp Ac trans]
+25.0 +13.8 50 +27 +29 жарко 1013.5 1001.7
С 1 2000 м дымка 5/3 300 м
[Cu med, cong Ac trans]
+20.2 +14.8 71 +24 +24 комфорт 1013.9 1001.9 +26.1
С 1 1000 м дымка 5/3 300 м
[Cu med, cong Ac trans]
+17.6 +14.5 82 +19 +19 1015.5 1003.4
С 3 2000 м дымка ясно +10.6 +10.2 97 +9 +9 1015.6 1003.2
С 1 4000 м дымка 1/1 600 м
[Cu med, cong]
+16.4 +14.3 87 +18 +24 1017.1 1004.9 +8.8
Ю 1 4000 м дымка 3/3 600 м
[Cu hum Ac trans]
+23.8 +14.8 57 +27 +35 жарко 1015.0 1003.2
Ю 1 4000 м мгла 5/1 600 м
[Cu hum Ac trans]
+26.2 +15.4 51 +29 +32 жарко 1012.1 1000.4
С 1 2000 м дымка 5/1 600 м
[Cu hum Ac trans]
+20.6 +15.6 73 +25 +25 комфорт 1012.3 1000.4 +26.7
С 2 2000 м дымка 5/1 600 м
[Cu hum Ac trans]
+16.0 +15.0 94 +16 +16 1014.5 1002.3
С 2 2000 м дымка 1/1 600 м
[Cu med, cong]
+11.6 +11.2 97 +10 +10 1015.1 1002.7
С 1 4000 м дымка 1/1 600 м
[Cu hum]
+17.6 +14.1 80 +19 +24 1017.4 1005.3 +9.8
В 2 4000 м мгла 1/1 600 м
[Cu med, cong]
+23.6 +13.7 54 +26 +36 жарко 1015.5 1003.6
ЮВ 1 4000 м мгла 1/1 600 м
[Cu med, cong]
+25.8 +14.0 48 +28 +32 жарко 1012.9 1001.2
штиль 0 4000 м дымка 1/1 600 м
[Cu hum]
+20.0 +15.6 76 +22 +22 комфорт 1013.5 1001.5 +26.8
С 2 4000 м дымка 1/0
[Ac trans]
+15.6 +14.6 94 +16 +16 1015.8 1003.6
Местоположение метеостанции Северный Лахимпур (Ассам, Индия): широта 27.23 долгота 94.12 высота над уровнем моря 102 м.
В архиве по умолчанию представлена погода в Северном Лахимпуре за последнюю неделю. Архивные данные за месяц целиком и за предыдущие месяцы, начиная с января 2011 года, Вы можете получить, выбрав интересующий диапазон дат из раскрывающегося списка и нажав кнопку "Найти!".
*Определитесь, кто Вы:
Внимание! Время в таблицах - всемирное. Для получения местного времени необходимо прибавить поправку, которая равна 5.5 ч.
Смотрите также архив погоды в соседних городах и на ближайших метеорологических станциях:
Партнеры нашего сайта:      
Пояснения к столбцам:
  • Ветер - указаны скорость ветра в м/с - средняя за 10 мин, порывы в срок и между сроками (в фигурных скобках) и направление, откуда дует ветер: С - северный,
  • СВ - северо-восточный, В - восточный, ЮВ - юго-восточный, Ю - южный, ЮЗ - юго-западный, З - западный, СЗ - северо-западный.
  • Видимость - горизонтальная дальность видимости в метрах или километрах. При видимости от 1 до 10 км при отсутствии осадков обычно наблюдается дымка, при ухудшении видимости до 1 км и менее - туман. В сухую погоду видимость может ухудшаться дымом, пылью или мглою.
  • Явления - указаны атмосферные явления, наблюдавшиеся в срок или в последний час перед сроком; фигурными скобками обозначены явления, наблюдавшиеся между сроками (за 1-3 часа до срока); квадратными скобками обозначены град или гололедные отложения с указанием их диаметра в мм.
  • Облачность - указаны через наклонную черту общая и нижняя облачность в баллах и высота нижней границы облаков в метрах; квадратными скобками обозначены формы облаков: Ci - перистые, Cs - перисто-слоистые, Cc - перисто-кучевые, Ac - высококучевые, As - высокослоистые, Sc - слоисто-кучевые, Ns - слоисто-дождевые, Cu - кучевые, Cb - кучево-дождевые. Подробнее классификацию облаков см. в Атласе облаков (PDF).
  • T - Температура воздуха - температура, измеренная на высоте 2 м над землей.
  • Td - Температура точки росы - температура, при понижении до которой содержащийся в воздухе водяной пар достигнет насыщения.
  • f - Относительная влажность воздуха - влажноcть воздуха, измеренная на высоте 2 м над землей.
  • Te - Эффективная температура - температура, которую ощущает одетый по сезону человек в тени. Характеристика душности погоды. При расчете учитывается влияние влажности воздуха и скорости ветра на теплоощущения человека.
  • Tes - Эффективная температура на солнце - температура, которую ощущает человек, с поправкой на солнечный нагрев. Характеристика знойности погоды. Зависит от высоты солнца над горизонтом, облачности и скорости ветра. Ночью, в пасмурную погоду, а также при ветре 12 м/с и более поправка равна нулю.
  • P - Атмосферное давление - приведенное к уровню моря атмосферное давление.
  • Po - Атмосферное давление - измеренное на уровне метеостанции атмосферное давление.
  • Tmin - Минимальная температура - минимум температуры воздуха на высоте 2 м над землей.
  • Tmax - Максимальная температура - максимум температуры воздуха на высоте 2 м над землей.
  • R - Количество осадков - Количество выпавших осадков за период времени, мм. При наведении курсора мыши на число - период времени, за который выпало указанное количество осадков.
  • R24 - Количество осадков - Количество выпавших осадков за 24 часа, мм.
  • S - Снежный покров - Высота снежного покрова, см. При наведении курсора мыши на число - состояние снежного покрова и степень покрытия местности в баллах.